星链-36082(STARLINK-36082)

导读

STARLINK-36082是美国于2025年12月2日发射的星链系列卫星,星链计划是SpaceX打造的低轨卫星互联网星座项目,旨在为全球提供高速低成本互联网覆盖,该卫星的入轨进一步扩充了星链星座的规模,推进了星座全球组网部署进程。

基本信息
目录编号:
66872
目录名称:
STARLINK-36082
国际标识:
2025-281AA
轨道中心:
EARTH
卫星名称:
星链-36082
卫星全名:
星链-36082(STARLINK-36082)
卫星状态:
在轨 (已飞行193 天)
发射日期:
2025-12-02 UTC
国别 :
美国 (US)
星等 :
--
轨道信息
数据来源 国际轨道数据 AOE轨道数据
星历时间 2026-06-12T15:06:47+0800
1天前
查看轨道信息
2026-06-10T05:00:00+0800
3天前
查看轨道信息
半长轴 6861.195km 6861.212km
偏心率 0.0000305 0.0000247
轨道倾角 43.005° 42.999°
近地点辐角 285.612° 228.798°
升交点赤经 169.250° 182.923°
平近点角 74.470° 119.832°
近地点 482.848km 482.905km
远地点 483.268km 483.245km
周期 94.267分钟 94.267分钟
每日圈数 15.275773 15.275716
详细信息
固有亮度:
5
最大亮度:
2.5
卫星平台:
Starlink V1.0
覆盖范围:
全球
运营商:
太空探索技术公司
运营商所在国:
美国
制造商(研发单位):
太空探索技术公司
制造商所在国:
美国
使用方式:
暂无
卫星简介
Starlink 计划是 SpaceX 推出的全球卫星互联网项目,通过发射低轨道卫星,为全球尤其是偏远地区提供高速、低延迟的互联网服务。自 2019 年起,Starlink 已部署数千颗卫星,旨在缩小全球数字鸿沟,推动互联网普及。该项目还为军事、航空等行业提供通信支持,带来广泛经济效益。
2D轨道图
3D轨道图
轨道高度分析图
轨道倾角分析图
轨道综合分析图
查看轨道综合分析图